Tracking 30743 objects as of 21-Jun-2025
HD Live streaming from Space Station
objects crossing your sky now

STARLINK-5852

Track STARLINK-5852 now!
10-day predictions
STARLINK-5852 is classified as:


NORAD ID: 55933
Int'l Code: 2023-037V
Perigee: 576.6 km
Apogee: 581.8 km
Inclination: 70.0 °
Period: 96.1 minutes
Semi major axis: 6950 km
RCS: Unknown
Launch date: March 17, 2023
Source: United States (US)
Launch site: AIR FORCE WESTERN TEST RANGE (AFWTR)
Your satellite tracking list
Your tracking list is empty




NASA's NSSDC Master Catalog

Two Line Element Set (TLE):
1 55933U 23037V   25171.89586477  .00000611  00000-0  59035-4 0  9994
2 55933  69.9988 224.6251 0003695 268.7107  91.3629 14.98331161124769
Source of the keplerian elements: AFSPC